Latest Weather Observations for Mount Gellibrand

IDV60801

Issued at 7:35 pm EST Friday 1 August 2014 (issued every 30 minutes, with the page automatically refreshed every 10 minutes)

About weather observations | Map of weather stations | Latest weather observations for VIC | Other Formats
Station Details ID: 090035 Name: MOUNT GELLIBRAND Lat: -38.23 Lon: 143.79 Height: 261.0 m
Data from the previous 72 hours. | See also: Recent months at Mount Gellibrand
Date/Time
EST
Temp
°C
App
Temp
°C
Dew
Point
Rel
Hum
%
Delta-T
°C
Wind Press
QNH
hPa
Press
MSL
hPa
Rain
since 9 am
mm
Dir
 
Spd
km/h
Gust
km/h
Spd
kts
Gust
kts
01/07:30pm 4.2 -2.8 1.9 85 0.9 WSW 28 33 15 18 1017.3 - 5.8
01/07:00pm 3.8 -1.7 1.7 86 0.8 W 20 28 11 15 1016.7 1017.0 5.8
01/06:30pm 4.3 -2.3 1.8 84 1.0 WSW 26 30 14 16 1015.7 - 5.8
01/06:00pm 3.8 -3.1 2.5 91 0.5 WSW 28 35 15 19 1015.1 1015.5 5.8
01/05:30pm 3.9 -2.6 2.4 90 0.6 WSW 26 33 14 18 1014.0 - 5.8
01/05:27pm 4.1 -3.2 2.5 89 0.7 WSW 30 33 16 18 1013.8 - 5.8
01/05:03pm 4.5 -4.5 2.7 88 0.7 SW 39 57 21 31 1013.2 - 5.8
01/05:00pm 4.7 -5.0 2.7 87 0.8 SW 43 57 23 31 1013.1 1013.4 5.8
01/04:49pm 4.9 -3.3 2.8 86 0.9 SW 35 57 19 31 1012.7 - 5.4
01/04:30pm 4.8 -2.4 2.8 87 0.8 SW 30 39 16 21 1012.2 - 5.4
01/04:00pm 4.4 -2.8 3.2 92 0.5 WSW 30 39 16 21 1011.5 1011.9 5.4
01/03:40pm 5.6 -1.9 3.4 86 0.9 SW 32 56 17 30 1011.1 - 5.0
01/03:30pm 5.8 -2.6 3.5 85 1.0 WSW 37 44 20 24 1010.6 - 5.0
01/03:00pm 6.1 -2.4 2.9 80 1.3 WSW 37 48 20 26 1009.5 1009.8 5.0
01/02:30pm 4.9 -4.5 2.6 85 0.9 SW 41 57 22 31 1008.7 - 5.0
01/02:04pm 4.7 -6.4 2.2 84 1.0 SW 50 69 27 37 1008.1 - 5.0
01/02:00pm 5.2 -6.8 1.5 77 1.5 SW 54 69 29 37 1007.7 1008.0 4.6
01/01:53pm 7.3 -2.9 3.4 76 1.7 WSW 46 67 25 36 1007.0 - 4.4
01/01:49pm 7.1 -2.1 3.3 77 1.6 WSW 41 50 22 27 1007.1 - 4.4
01/01:30pm 7.7 0.2 4.5 80 1.4 W 33 43 18 23 1007.0 - 4.4
01/01:00pm 5.6 -1.5 3.8 88 0.8 W 30 37 16 20 1006.8 1007.1 4.4
01/12:30pm 4.7 -2.4 3.8 94 0.4 W 30 39 16 21 1006.3 - 4.4
01/12:00pm 4.5 -3.2 3.6 94 0.4 WNW 33 43 18 23 1006.0 1006.3 4.2
01/11:30am 4.9 -3.4 4.3 96 0.3 WNW 37 46 20 25 1004.7 - 4.0
01/11:00am 3.6 -5.3 3.0 96 0.2 WNW 39 46 21 25 1004.3 1004.5 4.0
01/10:30am 3.4 -6.9 2.7 95 0.3 WNW 46 59 25 32 1003.7 - 4.0
01/10:00am 3.3 -9.2 2.1 92 0.5 NW 57 69 31 37 1001.9 1002.2 2.6
01/09:30am 3.4 -9.4 2.2 92 0.5 NW 59 72 32 39 1000.9 - 2.0
01/09:00am 3.6 -7.2 2.1 90 0.6 NW 48 57 26 31 1001.6 1001.9 8.8
01/08:30am 3.5 -7.6 2.2 91 0.5 NW 50 61 27 33 1000.5 - 8.8
01/08:00am 2.8 -8.4 1.6 92 0.5 NW 50 65 27 35 1000.5 1000.8 8.8
01/07:30am 2.4 -8.1 1.4 93 0.4 NW 46 59 25 32 1000.5 - 8.8
01/07:00am 2.5 -9.5 1.5 93 0.4 NW 54 65 29 35 999.7 1000.1 8.8
01/06:49am 2.6 -8.3 1.6 93 0.4 WNW 48 72 26 39 999.6 - 8.6
01/06:30am 3.4 -8.2 1.8 89 0.6 NW 52 61 28 33 999.9 - 8.0
01/06:00am 3.2 -8.4 1.6 89 0.6 NW 52 61 28 33 998.6 998.9 8.0
01/05:30am 3.2 -7.7 1.4 88 0.7 NNW 48 59 26 32 998.4 - 8.0
01/05:00am 3.3 -7.6 1.5 88 0.7 NNW 48 59 26 32 998.5 998.8 8.0
01/04:30am 2.6 -6.2 1.3 91 0.5 NNW 37 43 20 23 999.2 - 8.0
01/04:00am 3.0 -7.9 1.4 89 0.6 NW 48 57 26 31 999.2 999.5 8.0
01/03:30am 2.9 -9.7 1.4 90 0.6 NW 57 70 31 38 998.8 - 8.0
01/03:00am 3.7 -9.2 1.7 87 0.8 WNW 59 85 32 46 999.5 999.9 8.0
01/02:40am 3.7 -7.2 1.6 86 0.8 NW 48 69 26 37 999.5 - 8.0
01/02:30am 3.6 -7.3 1.5 86 0.8 NW 48 57 26 31 999.7 - 8.0
01/02:00am 3.3 -6.2 1.5 88 0.7 NW 41 50 22 27 1000.2 1000.5 8.0
01/01:30am 3.5 -7.0 1.7 88 0.7 NW 46 56 25 30 999.9 - 8.0
01/01:00am 3.0 -6.2 1.5 90 0.6 NW 39 48 21 26 1000.3 1000.6 8.0
01/12:30am 3.4 -5.7 1.6 88 0.7 NW 39 50 21 27 1000.2 - 8.0
01/12:00am 3.7 -6.4 1.6 86 0.8 WNW 44 54 24 29 1000.1 1000.4 7.8
 
Date/Time
EST
Temp
°C
App
Temp
°C
Dew
Point
Rel
Hum
%
Delta-T
°C
Wind Press
QNH
hPa
Press
MSL
hPa
Rain
since 9 am
mm
Dir
 
Spd
km/h
Gust
km/h
Spd
kts
Gust
kts
31/11:30pm 3.8 -6.3 1.8 87 0.8 W 44 54 24 29 999.9 - 7.8
31/11:00pm 3.6 -6.2 2.0 89 0.6 WNW 43 56 23 30 999.7 1000.1 7.8
31/10:30pm 3.6 -8.0 1.6 87 0.8 WNW 52 67 28 36 999.6 - 7.8
31/10:00pm 4.4 -5.3 2.8 89 0.7 WNW 43 56 23 30 999.5 999.9 7.8
31/09:30pm 4.4 -6.2 3.1 91 0.5 WNW 48 74 26 40 999.4 - 7.8
31/09:20pm 4.5 -6.5 2.8 89 0.7 WNW 50 76 27 41 998.9 - 7.4
31/09:00pm 4.7 -6.0 2.6 86 0.9 NW 48 59 26 32 998.5 998.8 7.0
31/08:30pm 4.9 -5.4 2.8 86 0.9 NW 46 59 25 32 997.8 - 7.0
31/08:11pm 4.3 -4.6 3.3 93 0.4 WNW 39 50 21 27 998.7 - 7.0
31/08:00pm 3.6 -6.3 2.7 94 0.4 W 44 63 24 34 998.9 999.2 7.0
31/07:42pm 4.5 -6.2 2.4 86 0.9 WSW 48 69 26 37 998.8 - 5.8
31/07:41pm 5.4 -4.2 3.4 87 0.8 W 43 56 23 30 999.2 - 5.6
31/07:30pm 5.6 -5.8 3.1 84 1.1 WNW 52 67 28 36 998.4 - 5.6
31/07:00pm 5.6 -6.3 2.3 79 1.4 WNW 54 63 29 34 997.4 997.7 5.6
31/06:30pm 5.9 -6.2 3.2 83 1.1 WNW 56 76 30 41 997.1 - 5.6
31/06:24pm 5.7 -5.2 3.7 87 0.9 NW 50 74 27 40 997.0 - 5.6
31/06:00pm 5.7 -4.8 3.7 87 0.9 NW 48 61 26 33 996.9 997.2 5.6
31/05:30pm 5.4 -4.0 4.2 92 0.5 NW 43 50 23 27 996.8 - 5.6
31/05:00pm 5.6 -4.0 4.2 91 0.6 WNW 44 57 24 31 997.1 997.4 5.4
31/04:30pm 5.6 -5.6 3.9 89 0.7 WNW 52 70 28 38 996.7 - 5.2
31/04:00pm 5.5 -5.7 4.0 90 0.7 WNW 52 65 28 35 996.3 996.6 5.0
31/03:30pm 5.4 -6.8 3.7 89 0.7 W 57 78 31 42 996.0 - 5.0
31/03:14pm 5.5 -6.6 4.3 92 0.5 W 57 76 31 41 995.9 - 4.8
31/03:00pm 5.7 -7.1 4.5 92 0.5 W 61 76 33 41 995.6 995.9 4.4
31/02:30pm 5.8 -7.0 4.8 93 0.4 W 61 82 33 44 994.7 - 4.0
31/02:00pm 6.6 -5.2 5.7 94 0.4 WSW 57 78 31 42 994.2 994.5 3.2
31/01:39pm 7.3 -3.8 6.4 94 0.4 W 54 76 29 41 993.9 - 2.4
31/01:30pm 7.1 -3.7 6.2 94 0.4 W 52 69 28 37 993.7 - 2.4
31/01:23pm 7.8 -2.0 7.2 96 0.3 W 48 69 26 37 993.9 - 2.2
31/01:00pm 7.7 -4.1 7.3 97 0.2 W 59 72 32 39 993.4 993.7 1.8
31/12:54pm 7.7 -5.3 7.1 96 0.3 W 65 83 35 45 993.4 - 1.6
31/12:48pm 8.6 -5.7 7.4 92 0.6 W 72 83 39 45 992.8 - 0.4
31/12:46pm 12.0 -1.7 8.1 77 1.9 NNW 70 91 38 49 992.5 - 0.0
31/12:30pm 12.7 -2.3 7.4 70 2.6 NNW 76 91 41 49 990.4 - 0.0
31/12:00pm 13.3 -2.1 7.7 69 2.8 NNW 78 100 42 54 991.7 992.0 0.0
31/11:31am 12.4 -2.2 7.5 72 2.4 NNW 74 95 40 51 993.0 - 0.0
31/11:30am 12.3 -2.7 7.4 72 2.4 NNW 76 95 41 51 993.0 - 0.0
31/11:09am 13.3 -2.9 7.3 67 3.0 NNW 82 102 44 55 992.3 - 0.0
31/11:00am 12.9 -2.6 7.1 68 2.9 NNW 78 93 42 50 993.0 993.3 0.0
31/10:30am 12.4 -3.0 7.3 71 2.5 NNW 78 98 42 53 993.5 - 0.0
31/10:15am 12.2 -3.0 6.9 70 2.6 NNW 76 95 41 51 993.8 - 0.0
31/10:00am 12.0 -3.5 6.9 71 2.5 NNW 78 93 42 50 994.2 994.5 0.0
31/09:30am 11.8 -3.4 6.7 71 2.5 NNW 76 93 41 50 995.2 - 0.0
31/09:00am 11.6 -3.6 6.5 71 2.5 NNW 76 95 41 51 995.1 995.4 0.4
31/08:55am 11.6 -3.6 6.7 72 2.4 NNW 76 95 41 51 995.6 - 0.4
31/08:30am 11.2 -3.3 6.5 73 2.2 NNW 72 85 39 46 995.7 - 0.4
31/08:18am 11.0 -2.9 6.7 75 2.1 NNW 69 89 37 48 996.3 - 0.4
31/08:00am 10.7 -3.1 7.0 78 1.8 NNW 69 83 37 45 997.2 997.5 0.4
31/07:30am 10.6 -4.2 6.9 78 1.8 NNW 74 87 40 47 996.8 - 0.4
31/07:00am 10.6 -2.5 6.9 78 1.8 NNW 65 80 35 43 997.5 997.8 0.4
31/06:30am 10.5 -2.5 7.2 80 1.6 NNW 65 78 35 42 997.8 - 0.4
31/06:00am 10.8 -2.6 7.1 78 1.8 NNW 67 78 36 42 998.0 998.3 0.4
31/05:30am 10.7 -2.0 7.0 78 1.8 NNW 63 76 34 41 998.4 - 0.4
31/05:00am 10.7 -2.3 7.4 80 1.6 NNW 65 76 35 41 999.2 999.5 0.4
31/04:30am 11.0 -2.9 7.5 79 1.7 NNW 70 82 38 44 999.0 - 0.4
31/04:00am 10.7 -1.6 7.0 78 1.8 NNW 61 76 33 41 1000.0 1000.3 0.4
31/03:53am 10.5 -1.0 7.0 79 1.7 NNW 57 76 31 41 1000.1 - 0.4
31/03:30am 10.7 -0.7 7.4 80 1.6 NNW 57 69 31 37 1001.1 - 0.4
31/03:00am 11.2 -2.0 8.1 81 1.5 NNW 67 76 36 41 1001.3 1001.6 0.4
31/02:30am 11.0 -0.6 8.4 84 1.3 NNW 59 72 32 39 1001.4 - 0.4
31/02:00am 10.9 -0.1 8.5 85 1.2 NNW 56 70 30 38 1002.3 1002.6 0.4
31/01:30am 11.1 0.4 8.1 82 1.5 NNW 54 63 29 34 1003.2 - 0.4
31/01:00am 11.5 1.6 8.4 81 1.6 NNW 50 61 27 33 1003.9 1004.2 0.4
31/12:30am 11.2 2.8 8.9 86 1.2 NNW 43 50 23 27 1004.9 - 0.4
31/12:00am 11.2 1.5 8.9 86 1.2 NNW 50 61 27 33 1005.0 1005.3 0.4
 
Date/Time
EST
Temp
°C
App
Temp
°C
Dew
Point
Rel
Hum
%
Delta-T
°C
Wind Press
QNH
hPa
Press
MSL
hPa
Rain
since 9 am
mm
Dir
 
Spd
km/h
Gust
km/h
Spd
kts
Gust
kts
30/11:36pm 10.9 1.9 9.0 88 1.0 NNW 46 67 25 36 1005.3 - 0.4
30/11:30pm 10.9 2.4 9.2 89 0.9 NNW 44 56 24 30 1005.6 - 0.4
30/11:00pm 10.8 1.6 9.4 91 0.7 NNW 48 57 26 31 1006.0 1006.4 0.4
30/10:30pm 11.3 2.3 8.7 84 1.3 NNW 46 54 25 29 1006.5 - 0.4
30/10:00pm 11.4 0.5 8.8 84 1.3 NW 56 69 30 37 1006.9 1007.3 0.4
30/09:51pm 11.8 2.3 8.3 79 1.7 NW 48 67 26 36 1006.8 - 0.4
30/09:30pm 11.8 4.4 8.3 79 1.7 NW 37 44 20 24 1007.3 - 0.4
30/09:00pm 12.0 3.5 8.5 79 1.8 NW 43 50 23 27 1007.2 1007.6 0.4
30/08:30pm 11.9 2.9 8.9 82 1.5 NW 46 54 25 29 1007.1 - 0.4
30/08:00pm 11.8 3.2 9.0 83 1.4 NW 44 54 24 29 1007.1 1007.5 0.4
30/07:30pm 11.9 3.0 9.3 84 1.3 NW 46 57 25 31 1007.5 - 0.4
30/07:00pm 12.0 2.3 9.0 82 1.5 NW 50 59 27 32 1007.6 1008.0 0.4
30/06:30pm 12.3 1.9 9.1 81 1.6 NW 54 63 29 34 1007.4 - 0.4
30/06:00pm 12.8 3.5 9.1 78 1.9 NW 48 59 26 32 1007.4 1007.8 0.4
30/05:30pm 12.7 4.4 9.9 83 1.5 NW 44 56 24 30 1007.5 - 0.4
30/05:00pm 12.3 4.3 10.5 89 0.9 WNW 43 52 23 28 1007.7 1008.1 0.4
30/04:30pm 12.5 3.1 10.2 86 1.2 WNW 50 65 27 35 1007.6 - 0.4
30/04:16pm 12.9 4.4 10.6 86 1.2 WNW 46 54 25 29 1007.6 - 0.4
30/04:00pm 13.7 0.6 9.7 77 2.1 NW 69 83 37 45 1006.6 1007.0 0.4
30/03:30pm 13.6 2.9 10.4 81 1.7 NW 57 70 31 38 1006.6 - 0.4
30/03:14pm 13.8 3.8 10.8 82 1.6 NW 54 72 29 39 1006.8 - 0.4
30/03:00pm 13.4 2.5 10.9 85 1.3 NW 59 74 32 40 1006.8 1007.2 0.4
30/02:30pm 13.6 3.6 12.0 90 0.9 WNW 56 69 30 37 1006.9 - 0.4
30/02:00pm 12.8 2.6 12.0 95 0.4 NW 57 76 31 41 1007.1 1007.5 0.2
30/01:58pm 12.9 2.9 12.1 95 0.4 NW 56 76 30 41 1007.0 - 0.2
30/01:30pm 13.0 4.4 11.6 91 0.8 NW 48 59 26 32 1007.9 - 0.0
30/01:00pm 13.3 3.8 11.2 87 1.1 NW 52 65 28 35 1008.2 1008.5 0.0
30/12:30pm 13.0 4.0 11.7 92 0.7 NW 50 59 27 32 1009.0 - 0.0
30/12:00pm 12.3 4.4 11.4 94 0.5 NW 44 59 24 32 1009.5 1009.9 0.0
30/11:30am 11.9 2.0 11.1 95 0.4 NW 54 69 29 37 1009.7 - 0.0
30/11:00am 12.7 3.7 10.2 85 1.3 NW 48 57 26 31 1010.1 1010.5 0.0
30/10:30am 12.5 3.4 10.0 85 1.3 NW 48 61 26 33 1010.1 - 0.0
30/10:00am 12.1 3.5 10.3 89 0.9 NW 46 56 25 30 1010.5 1010.9 0.0
30/09:30am 11.0 3.2 9.8 92 0.6 NW 41 52 22 28 1010.4 - 0.0
30/09:00am 10.5 1.6 9.1 91 0.7 NW 46 59 25 32 1010.1 1010.5 7.4
30/08:30am 9.8 1.1 8.4 91 0.7 NW 44 52 24 28 1010.0 - 7.4
30/08:00am 8.8 0.1 7.7 93 0.5 NW 43 48 23 26 1009.8 1010.2 7.4
30/07:30am 8.4 0.4 7.6 95 0.4 NW 39 44 21 24 1009.7 - 7.4
30/07:00am 8.5 0.6 7.9 96 0.3 NW 39 44 21 24 1009.5 1009.9 7.4
30/06:30am 9.1 1.3 8.3 95 0.4 NW 39 43 21 23 1009.7 - 7.4
30/06:00am 9.6 1.9 8.8 95 0.4 NW 39 44 21 24 1009.6 1010.0 7.4
30/05:30am 9.7 1.3 8.9 95 0.4 WNW 43 54 23 29 1009.4 - 7.4
30/05:00am 9.6 1.6 9.0 96 0.3 WNW 41 48 22 26 1009.4 1009.8 7.4
30/04:30am 9.5 0.9 8.7 95 0.4 WNW 44 54 24 29 1009.4 - 7.4
30/04:00am 9.6 1.2 9.1 97 0.3 WNW 43 50 23 27 1009.3 1009.7 7.4
30/03:30am 10.1 1.9 9.6 97 0.3 WNW 43 54 23 29 1009.4 - 7.4
30/03:00am 10.5 2.2 10.2 98 0.2 W 44 54 24 29 1009.7 1010.1 7.4
30/02:30am 10.6 2.4 10.3 98 0.2 W 44 52 24 28 1009.5 - 7.2
30/02:12am 10.7 1.4 10.4 98 0.2 W 50 69 27 37 1009.5 - 7.0
30/02:06am 10.7 0.2 10.4 98 0.2 W 56 69 30 37 1009.3 - 6.4
30/02:04am 11.0 5.0 10.7 98 0.2 W 33 57 18 31 1009.7 - 6.0
30/02:00am 10.9 4.5 10.6 98 0.2 W 35 44 19 24 1009.7 1010.1 5.0
30/01:30am 10.9 1.6 10.6 98 0.2 WNW 50 61 27 33 1009.3 - 5.0
30/01:15am 11.0 2.9 10.7 98 0.2 WNW 44 63 24 34 1009.1 - 5.0
30/01:00am 11.0 4.2 10.7 98 0.2 WNW 37 50 20 27 1009.5 1009.9 4.8
30/12:30am 10.9 2.9 10.4 97 0.3 WNW 43 52 23 28 1009.3 - 3.2
30/12:00am 11.1 1.7 10.0 93 0.6 WNW 50 61 27 33 1009.1 1009.5 2.4
 
Date/Time
EST
Temp
°C
App
Temp
°C
Dew
Point
Rel
Hum
%
Delta-T
°C
Wind Press
QNH
hPa
Press
MSL
hPa
Rain
since 9 am
mm
Dir
 
Spd
km/h
Gust
km/h
Spd
kts
Gust
kts
29/11:30pm 11.4 1.3 10.3 93 0.6 WNW 54 72 29 39 1008.9 - 2.4
29/11:19pm 11.5 1.0 10.2 92 0.7 WNW 56 74 30 40 1008.5 - 2.4
29/11:00pm 11.5 2.3 10.9 96 0.3 WNW 50 67 27 36 1008.4 1008.7 2.4
29/10:30pm 10.6 -0.2 10.1 97 0.3 WNW 57 72 31 39 1008.3 - 2.4
29/10:00pm 11.2 2.8 10.9 98 0.2 WNW 46 54 25 29 1008.5 1008.8 2.2
29/09:42pm 11.2 2.3 10.7 97 0.3 WNW 48 69 26 37 1008.2 - 1.8
29/09:30pm 11.2 1.5 10.6 96 0.3 WNW 52 65 28 35 1008.1 - 1.4
29/09:00pm 11.4 1.0 10.8 96 0.3 WNW 56 65 30 35 1007.7 1008.1 1.4
29/08:30pm 11.3 2.0 10.7 96 0.3 W 50 61 27 33 1008.1 - 1.2
29/08:00pm 12.4 2.6 10.0 85 1.3 WNW 52 65 28 35 1007.2 1007.6 0.2
29/07:39pm 13.0 1.4 9.8 81 1.7 NW 61 80 33 43 1006.3 - 0.2

Other Formats:

Comma delimited format used in spreadsheet applications
http://www.bom.gov.au/fwo/IDV60801/IDV60801.95845.axf

JavaScript Object Notation format (JSON) in row-major order
http://www.bom.gov.au/fwo/IDV60801/IDV60801.95845.json